Regional Weather Roundup
Issued by NWS

Home | Current Version | Previous Version | Graphics & Text | Print | Product List | Glossary On
Versions: 1 2 3 4 5 6 7 8 9 10 11 12 13 14 15 16 17 18 19 20 21 22 23 24 25 26 27 28 29 30 31 32 33 34 35 36 37 38 39 40 41 42 43 44 45 46 47 48 49 50
000
ASUS43 KMPX 042201
RWRMN
WEATHER ROUNDUP FOR MINNESOTA
NATIONAL WEATHER SERVICE TWIN CITIES/CHANHASSEN MN
400 PM CST SUN DEC 04 2016


NOTE: "FAIR" INDICATES FEW OR NO CLOUDS BELOW 12,000 FEET WITH NO
SIGNIFICANT WEATHER AND/OR OBSTRUCTIONS TO VISIBILITY. N/A MEANS
CURRENT SKY AND/OR WEATHER CONDITIONS ARE NOT AVAILABLE.

MNZ060>063-068>070-042300-
   Twin Cities Metro

CITY           SKY/WX    TMP DP  RH WIND       PRES   REMARKS
TWIN CITIES    CLOUDY    37  32  82 SW10      29.76S
ST PAUL        CLOUDY    36  34  92 S5        29.77F
CRYSTAL        CLOUDY    36  31  82 SW7       29.73F
BLAINE         CLOUDY    37  36  93 SW9       29.74S
LAKEVILLE      MOCLDY    34  34 100 CALM      29.76F
EDEN PRAIRIE   CLOUDY    37  33  85 S9        29.75S
SOUTH ST PAUL  MOCLDY    36  33  88 SW8       29.76F
LAKE ELMO      CLOUDY    34  32  93 S10       29.75F WCI  26
$$
MNZ001>005-007-008-013>017-022>024-027-028-042300-
   Northwest Minnesota

CITY           SKY/WX    TMP DP  RH WIND       PRES   REMARKS
BEMIDJI        LGT SNOW  32  32  99 S5        29.62S WCI  27
HALLOCK        LGT SNOW  32  30  93 SW8       29.60S WCI  25
ROSEAU         CLOUDY    32  27  80 SW9       29.60S HAZE    WCI  24
WARROAD        CLOUDY    34  28  80 SW5       29.60S WCI  30
THIEF RVR FALL CLOUDY    30  27  88 SW10      29.64R WCI  21
CROOKSTON      CLOUDY    30  30 100 W8        29.66R WCI  23
FOSSTON        CLOUDY    28  27  93 W8        29.65R WCI  20
DETROIT LAKES  MOCLDY    32  30  93 W10       29.67S WCI  24
MOORHEAD       CLOUDY    34  28  80 W16       29.69S WCI  23
PARK RAPIDS    CLOUDY    33  29  85 W13       29.64S WCI  24
$$
MNZ006-009>011-018-025>026-042300-
   North Central Minnesota

CITY           SKY/WX    TMP DP  RH WIND       PRES   REMARKS
BAUDETTE       FLURRIES  32  30  92 SE10      29.61S WCI  24
FLAG ISLAND    FLURRIES  32  30  93 SE16      29.59F WCI  21
INTL FALLS     FOG       31  28  89 SE7       29.66F VSB 1   WCI  24
WASKISH        LGT SNOW  32  30  93 SE5       29.62F WCI  27
BIG FORK       LGT SNOW  32  28  86 SE3       29.65F VSB 1
LONGVILLE      LGT SNOW  32  30  93 S5        29.64F WCI  27
GRAND RAPIDS   LGT SNOW  31  30  96 SE7       29.67F FOG     WCI  24
CRANE LAKE     LGT SNOW  30  28  93 CALM      29.71S
ORR            MIX PCPN  30  27  86 CALM      29.66S
COOK           LGT SNOW  30  28  93 SE5       29.68F WCI  25
$$
MNZ012-019>021-037-042300-
   Northeast Minnesota

CITY           SKY/WX    TMP DP  RH WIND       PRES   REMARKS
DULUTH         LGT SNOW  31  30  96 S8        29.69F FOG     WCI  23
ELY            LGT SNOW  30  28  93 SE5       29.69F WCI  25
HIBBING        LGT SNOW  29  28  96 SE7       29.67F VSB 1   WCI  22
EVELETH        MIX PCPN  32  31  94 SE6       29.69F WCI  27
DULUTH HARBOR  MIX PCPN  34  30  86 S7        29.74F WCI  28
TWO HARBORS    MIX PCPN  34  28  80 S3        29.70F
SILVER BAY     LGT SNOW  32  32 100 S7        29.71F WCI  26
GRAND MARAIS     N/A     35  34  96 SE12      29.78F WCI  27
G MARAIS ARPRT MIX PCPN  28  25  86 SE8       29.73F VSB 3/4 WCI  20
$$
MNZ029>031-032-039>041-046>048-054>057-064-042300-
   West Central Minnesota

CITY           SKY/WX    TMP DP  RH WIND       PRES   REMARKS
FERGUS FALLS   CLOUDY    34  32  93 W5        29.74S WCI  30
WHEATON        CLOUDY   N/A N/A N/A W6        29.74F
MORRIS         CLOUDY    36  30  80 W14       29.73R
ALEXANDRIA     CLOUDY    34  32  92 W16       29.71R WCI  24
ELBOW LAKE     CLOUDY    33  32  96 NW5       29.72R WCI  28
WADENA         CLOUDY    32  30  93 W9        29.67R WCI  24
GLENWOOD       MOCLDY    34  30  86 W13G20    29.72R WCI  25
APPLETON       MOCLDY    37  30  75 W10       29.75R
BENSON         CLOUDY    37  32  81 NW10      29.74R
ORTONVILLE     CLOUDY    36  28  75 W3        29.75S
MADISON        PTCLDY    39  34  81 W12       29.76S
WILLMAR        CLOUDY    37  34  87 W10       29.76R
$$
MNZ033>034-036-042>043-049>051-058-059-042300-
   Central Minnesota

CITY           SKY/WX    TMP DP  RH WIND       PRES   REMARKS
ST CLOUD       CLOUDY    34  33  96 SW5       29.72R WCI  30
PAYNESVILLE    CLOUDY    34  35 100 W10       29.73R WCI  26
AITKIN         LGT SNOW  36  30  80 S6        29.66S
PINE RIVER     LGT SNOW  32  32 100 S3        29.69S
BRAINERD       CLOUDY    32  32 100 SW12      29.67S FOG     WCI  23
STAPLES        CLOUDY    32  32 100 W12       29.67S FOG     WCI  23
LONG PRAIRIE   CLOUDY    32  32 100 SW7       29.70R FOG     WCI  26
LITTLE FALLS   CLOUDY    34  32  93 SW6       29.70S WCI  29
LITCHFIELD     CLOUDY    37  34  87 W7        29.73S
BUFFALO        CLOUDY    36  33  88 S6        29.74S
MAPLE LAKE     CLOUDY    37  35  94 S5        29.73S
$$
MNZ037-044-045-052-053-042300-
   East Central Minnesota

CITY           SKY/WX    TMP DP  RH WIND       PRES   REMARKS
PRINCETON      CLOUDY    36  34  93 S6        29.72S
MORA           CLOUDY    32  32 100 S6        29.72F FOG     WCI  26
CAMBRIDGE      MIX PCPN  36  34  93 S6        29.70F
RUSH CITY      CLOUDY    32  32 100 S6        29.72F WCI  26
MOOSE LAKE     MIX PCPN  32  32 100 S5        29.68F WCI  27
HINCKLEY       LGT SNOW  32  32 100 S8        29.71F WCI  25
CLOQUET        LGT SNOW  30  30 100 S5        29.69F WCI  25
MCGREGOR       CLOUDY    32  32 100 S8        29.68S WCI  25
$$
MNZ071>073-080-081-089-090-097-098-042300-
   Southwest Minnesota

CITY           SKY/WX    TMP DP  RH WIND       PRES   REMARKS
MONTEVIDEO     CLEAR     39  34  81 NW10      29.78R
GRANITE FALLS  MOCLDY    41  34  77 W14       29.78R
CANBY          CLEAR     40  32  74 W6        29.78R
MARSHALL       CLEAR     40  32  73 W14       29.77R
REDWOOD FALLS  PTCLDY    41  31  67 W17       29.76R
OLIVIA         PTCLDY    39  32  75 W14G22    29.74S
PIPESTONE      CLEAR     39  34  81 W12       29.78R
WINDOM         CLEAR     43  34  70 W10       29.78S
WORTHINGTON    CLEAR     41  33  73 W13       29.79R
JACKSON        CLEAR     41  32  70 W12       29.79S
TRACY          CLEAR     41  34  74 W8        29.77S
SLAYTON        CLEAR     39  32  75 W16       29.78S
$$
MNZ065>067-074>077-082>085-091>093-042300-
   South Central Minnesota

CITY           SKY/WX    TMP DP  RH WIND       PRES   REMARKS
MANKATO        CLEAR     39  34  82 SW9       29.77F
NEW ULM        MOCLDY    43  34  70 W12       29.76S
ST JAMES       CLEAR     43  34  70 W12       29.79S
FAIRMONT       CLEAR     43  35  73 W9        29.79S
GLENCOE        CLOUDY    39  37  93 SW6       29.74F
FARIBAULT      MOCLDY    36  34  93 S7        29.78F
OWATONNA       CLOUDY    36  32  87 S7        29.78F
WASECA         CLOUDY    36  34  93 SW10      29.79S
ALBERT LEA     CLOUDY    39  37  93 SW7       29.79S
$$
MNZ078>079-086>088-094>096-042300-
   Southeast Minnesota

CITY           SKY/WX    TMP DP  RH WIND       PRES   REMARKS
ROCHESTER      CLOUDY    33  31  92 SW13      29.79F WCI  24
RED WING       CLOUDY    36  32  87 SW3       29.78S
STANTON        CLOUDY    37  32  85 S8        29.76F
DODGE CENTER   CLOUDY    34  32  93 SW10      29.79R WCI  26
WINONA         CLOUDY    34  32  93 SW5       29.82F WCI  30
PRESTON        CLOUDY    32  30  92 SW9       29.82R WCI  24
$$
ABBREVIATIONS USED IN REMARKS
   TC - TEMPERATURES IN CELSIUS
  WCI - WIND CHILL INDEX
   HX - HEAT INDEX
  VSB - VISIBILITY
$$




USA.gov is the U.S. government's official web portal to all federal, state and local government web resources and services.